Weather History for Billings, MT

Change the Weather History Date:

Monday, May 6, 2013

  Actual Average Record
Temperature  
Mean Temperature 57 °F 53 °F  
Max Temperature 74 °F 65 °F 89 °F (1992)
Min Temperature 40 °F 41 °F 28 °F (2010)
Degree Days  
Heating Degree Days 8 13  
Month to date heating degree days 88 81  
Since 1 July heating degree days 6180 6458  
Cooling Degree Days 0 0  
Month to date cooling degree days 0 0  
Year to date cooling degree days 0 1  
Growing Degree Days 6 (Base 50)    
Moisture  
Dew Point 29 °F    
Average Humidity 40    
Maximum Humidity 59    
Minimum Humidity 20    
Precipitation  
Precipitation 0.00 in 0.06 in 0.97 in (1936)
Month to date precipitation 0.02 0.38  
Year to date precipitation 2.18 4.06  
Snow  
Snow 0.00 in 0.20 in 3.50 in (1965)
Month to date snowfall T 0.8  
Since 1 July snowfall 40.4 53.8  
Snow Depth 0.00 in    
Sea Level Pressure  
Sea Level Pressure 29.94 in    
Wind  
Wind Speed 6 mph (East)    
Max Wind Speed 14 mph    
Max Gust Speed 19 mph    
Visibility 10 miles    
Events      
T = Trace of Precipitation, MM = Missing Value Source: NWS Daily Summary

Daily Weather History Graph

Daily Weather History Graph

Search for Another Location

Airport:

Trip Planner

Search our weather history database for the weather conditions in past years. The results will help you decide how hot, cold, wet, or windy it might be!

Date:

Astronomy

May. 06, 2013 Rise Set
Actual Time 5:53 AM MDT 8:28 PM MDT
Civil Twilight 5:20 AM MDT 9:02 PM MDT
Nautical Twilight 4:37 AM MDT 9:44 PM MDT
Astronomical Twilight 3:49 AM MDT 10:33 PM MDT
Moon 4:07 AM MDT (5/6) 5:23 PM MDT (5/6)
Length of Visible Light 15h 42m
Length of Day
14h 34m
Waning Crescent, 10% of the Moon is Illuminated
May 6
Waning Crescent
May 9
New
May 17
First Quarter
May 24
Full
May 31
Last Quarter

Hourly Weather History & Observations

Time (MDT) Temp. Windchill Dew Point Humidity Pressure Visibility Wind Dir Wind Speed Gust Speed Precip Events Conditions
12:53 AM 46.9 °F - 25.0 °F 42% 30.02 in 10.0 mi North 8.1 mph - N/A   Clear
1:53 AM 46.9 °F - 24.1 °F 41% 30.00 in 10.0 mi North 6.9 mph - N/A   Clear
2:53 AM 48.0 °F - 24.1 °F 39% 30.00 in 10.0 mi NE 3.5 mph - N/A   Clear
3:53 AM 45.0 °F 42.6 °F 24.1 °F 44% 30.00 in 10.0 mi North 4.6 mph - N/A   Clear
4:53 AM 42.1 °F - 25.0 °F 51% 30.01 in 10.0 mi Calm Calm - N/A   Clear
5:53 AM 39.9 °F 35.8 °F 27.0 °F 60% 30.03 in 10.0 mi WSW 5.8 mph - N/A   Partly Cloudy
6:53 AM 45.0 °F 41.2 °F 27.0 °F 49% 30.02 in 10.0 mi WSW 6.9 mph - N/A   Clear
7:53 AM 43.0 °F 38.2 °F 27.0 °F 53% 30.04 in 10.0 mi SW 8.1 mph - N/A   Clear
8:53 AM 48.9 °F - 28.9 °F 46% 30.03 in 10.0 mi SW 8.1 mph - N/A   Clear
9:53 AM 55.9 °F - 30.0 °F 37% 30.01 in 10.0 mi SSW 4.6 mph - N/A   Clear
10:53 AM 61.0 °F - 32.0 °F 34% 29.99 in 10.0 mi SW 3.5 mph - N/A   Partly Cloudy
11:53 AM 64.9 °F - 30.9 °F 28% 29.99 in 10.0 mi SE 6.9 mph - N/A   Partly Cloudy
12:53 PM 68.0 °F - 32.0 °F 26% 29.96 in 10.0 mi Variable 6.9 mph - N/A   Partly Cloudy
1:53 PM 70.0 °F - 33.1 °F 26% 29.92 in 10.0 mi Variable 4.6 mph - N/A   Partly Cloudy
2:53 PM 71.1 °F - 32.0 °F 24% 29.91 in 10.0 mi Calm Calm - N/A   Partly Cloudy
3:53 PM 72.0 °F - 32.0 °F 23% 29.88 in 10.0 mi East 6.9 mph - N/A   Partly Cloudy
4:53 PM 73.0 °F - 30.9 °F 21% 29.86 in 10.0 mi East 6.9 mph - N/A   Partly Cloudy
5:53 PM 73.0 °F - 30.0 °F 20% 29.86 in 10.0 mi East 9.2 mph - N/A   Partly Cloudy
6:53 PM 71.6 °F - 30.2 °F 22% 29.89 in 10.0 mi East 9.2 mph - N/A   Clear
7:53 PM 69.1 °F - 30.0 °F 23% 29.85 in 10.0 mi East 9.2 mph - N/A   Partly Cloudy
8:53 PM 64.0 °F - 30.9 °F 29% 29.85 in 10.0 mi East 9.2 mph - N/A   Clear
9:53 PM 63.0 °F - 30.9 °F 30% 29.85 in 10.0 mi East 4.6 mph - N/A   Clear
10:53 PM 59.0 °F - 30.9 °F 35% 29.85 in 10.0 mi Calm Calm - N/A   Clear
11:53 PM 57.9 °F - 30.0 °F 35% 29.83 in 10.0 mi North 6.9 mph - N/A   Clear